Weather History for KMAI - June, 2013

Change the Weather History Date:

Saturday, June 29, 2013

  Actual Average Record
Temperature  
Mean Temperature 79 °F 82 °F  
Max Temperature 88 °F 92 °F 100 °F (1998)
Min Temperature 70 °F 71 °F 69 °F (2003)
Degree Days  
Heating Degree Days 0    
Month to date heating degree days 0  
Since 1 June heating degree days 0  
Since 1 July heating degree days 1377  
Cooling Degree Days 14    
Month to date cooling degree days 436  
Year to date cooling degree days 872  
Since 1 June cooling degree days 436  
Growing Degree Days 28 (Base 50)    
Moisture  
Dew Point 72 °F    
Average Humidity 82    
Maximum Humidity 100    
Minimum Humidity 63    
Precipitation  
Precipitation 0.36 in 0.18 in 0.62 in (2010)
Month to date precipitation 4.00 5.39  
Year to date precipitation 24.90 27.61  
Sea Level Pressure  
Sea Level Pressure 29.76 in    
Wind  
Wind Speed 7 mph (SW)    
Max Wind Speed 16 mph    
Max Gust Speed 22 mph    
Visibility 10 miles    
Events Rain , Thunderstorm    
T = Trace of Precipitation, MM = Missing Value Source: NWS Daily Summary

Daily Weather History Graph

Daily Weather History Graph

Search for Another Location

Airport or City:

Trip Planner

Search our weather history database for the weather conditions in past years. The results will help you decide how hot, cold, wet, or windy it might be!

Date:

Astronomy

Jun. 29, 2013 Rise Set
Actual Time 5:40 AM CDT 7:47 PM CDT
Civil Twilight 5:12 AM CDT 8:15 PM CDT
Nautical Twilight 4:39 AM CDT 8:49 PM CDT
Astronomical Twilight 4:02 AM CDT 9:25 PM CDT
Moon No Moon Rise 12:21 PM CDT (6/29)
Length of Visible Light 15h 02m
Length of Day
14h 07m
Waning Gibbous, 55% of the Moon is Illuminated
Jun 29
Waning Gibbous
Jun 29
Last Quarter
Jul 8
New
Jul 15
First Quarter
Jul 22
Full

Hourly Weather History & Observations

Time (CDT) Temp. Heat Index Dew Point Humidity Pressure Visibility Wind Dir Wind Speed Gust Speed Precip Events Conditions
12:53 AM 73.0 °F - 71.1 °F 93% 29.81 in 10.0 mi NW 12.7 mph 20.7 mph N/A   Mostly Cloudy
1:32 AM 73.4 °F - 69.8 °F 88% 29.81 in 10.0 mi Variable 5.8 mph - 0.00 in Rain , Thunderstorm Light Rain
1:53 AM 72.0 °F - 70.0 °F 93% 29.81 in 10.0 mi West 11.5 mph 20.7 mph 0.01 in Rain , Thunderstorm Light Thunderstorms and Rain
2:53 AM 71.1 °F - 69.1 °F 93% 29.77 in 8.0 mi Variable 3.5 mph - 0.13 in Rain , Thunderstorm Rain
3:53 AM 70.0 °F - 69.1 °F 97% 29.78 in 8.0 mi South 10.4 mph - 0.15 in Rain , Thunderstorm Rain
4:44 AM 71.6 °F - 69.8 °F 94% 29.80 in 10.0 mi SW 12.7 mph - 0.03 in Rain Light Rain
4:53 AM 71.1 °F - 69.1 °F 93% 29.78 in 10.0 mi SW 13.8 mph 21.9 mph 0.04 in Rain , Thunderstorm Light Rain
5:24 AM 71.6 °F - 68.0 °F 88% 29.77 in 10.0 mi Calm Calm - 0.02 in Rain Light Rain
5:45 AM 69.8 °F - 69.8 °F 100% 29.76 in 10.0 mi Calm Calm - 0.03 in Rain , Thunderstorm Light Rain
5:53 AM 70.0 °F - 69.1 °F 97% 29.74 in 10.0 mi ESE 3.5 mph - 0.03 in Rain , Thunderstorm Light Rain
6:05 AM 71.6 °F - 69.8 °F 94% 29.75 in 10.0 mi Calm Calm - 0.00 in   Mostly Cloudy
6:53 AM 70.0 °F - 69.1 °F 97% 29.77 in 10.0 mi SW 4.6 mph - 0.00 in   Partly Cloudy
7:53 AM 71.1 °F - 70.0 °F 96% 29.77 in 10.0 mi SSW 3.5 mph - 0.00 in   Partly Cloudy
8:53 AM 72.0 °F - 69.1 °F 91% 29.78 in 10.0 mi SW 8.1 mph - N/A   Mostly Cloudy
9:53 AM 73.9 °F - 71.1 °F 91% 29.77 in 10.0 mi SSW 11.5 mph - N/A   Clear
10:53 AM 77.0 °F - 72.0 °F 84% 29.78 in 10.0 mi WSW 9.2 mph - N/A   Partly Cloudy
11:53 AM 80.1 °F 84.2 °F 73.0 °F 79% 29.79 in 10.0 mi SW 8.1 mph - N/A   Mostly Cloudy
12:53 PM 82.0 °F 87.4 °F 73.0 °F 74% 29.77 in 10.0 mi SW 9.2 mph - N/A   Overcast
1:15 PM 82.4 °F 88.2 °F 73.4 °F 74% 29.77 in 10.0 mi WSW 9.2 mph - N/A   Scattered Clouds
1:24 PM 82.4 °F 88.2 °F 73.4 °F 74% 29.76 in 10.0 mi WSW 9.2 mph - N/A   Mostly Cloudy
1:51 PM 82.4 °F 88.2 °F 73.4 °F 74% 29.76 in 10.0 mi SW 6.9 mph - N/A   Scattered Clouds
1:53 PM 84.0 °F 91.2 °F 73.9 °F 72% 29.75 in 10.0 mi West 6.9 mph - N/A   Scattered Clouds
2:38 PM 84.2 °F 90.9 °F 73.4 °F 70% 29.74 in 10.0 mi SW 8.1 mph - N/A   Mostly Cloudy
2:53 PM 86.0 °F 95.1 °F 75.0 °F 70% 29.74 in 10.0 mi WSW 6.9 mph - N/A   Mostly Cloudy
3:53 PM 86.0 °F 93.8 °F 73.9 °F 67% 29.72 in 10.0 mi West 6.9 mph - N/A   Partly Cloudy
4:53 PM 88.0 °F 96.5 °F 73.9 °F 63% 29.70 in 10.0 mi WSW 5.8 mph - N/A   Partly Cloudy
5:53 PM 84.9 °F 91.4 °F 73.0 °F 67% 29.70 in 10.0 mi WSW 6.9 mph - N/A   Partly Cloudy
6:53 PM 82.9 °F 89.4 °F 73.9 °F 74% 29.70 in 10.0 mi SW 8.1 mph - N/A   Clear
7:53 PM 80.1 °F 84.5 °F 73.9 °F 81% 29.72 in 10.0 mi SSW 4.6 mph - N/A   Clear
8:53 PM 79.0 °F - 73.9 °F 84% 29.73 in 10.0 mi SSW 4.6 mph - N/A   Clear
9:53 PM 78.1 °F - 73.9 °F 87% 29.75 in 10.0 mi SSW 5.8 mph - N/A   Clear
10:53 PM 77.0 °F - 73.9 °F 90% 29.76 in 10.0 mi South 3.5 mph - N/A   Partly Cloudy
11:37 PM 77.0 °F - 75.2 °F 94% 29.75 in 10.0 mi SSE 4.6 mph - N/A   Mostly Cloudy
11:53 PM 77.0 °F - 75.0 °F 94% 29.75 in 10.0 mi SSE 5.8 mph - N/A   Scattered Clouds